{"data":{"norad_id":66867,"intl_designator":"2025-281V","name":"STARLINK-36101","alt_names":[],"object_type":"PAYLOAD","status":"ACTIVE","operator":null,"country":"US","launch_date":"2025-12-02","launch_site_code":"AFETR","launch_vehicle":null,"mission":null,"orbit_class":"UNKNOWN","rcs_meters":null,"size_class":null,"mass_kg":null,"dimensions":null,"purposes":["comms"],"wikipedia_slug":null,"has_3d_model":false,"image_url":null,"decayed_at":null,"tle_current":{"epoch":"2026-05-24T17:57:47.103840Z","epoch_age_seconds":86979,"freshness":"FRESH","line1":"1 66867U 25281V   26144.74846185  .00013077  00000+0  48377-3 0  9990","line2":"2 66867  42.9989 274.2886 0000664 277.8421  82.2355 15.27588793 27807","mean_motion":15.27588793,"eccentricity":6.64e-5,"inclination_deg":42.9989,"raan_deg":274.2886,"arg_perigee_deg":277.8421,"mean_anomaly_deg":82.2355,"bstar":0.00048377,"rev_number":2780,"period_min":94.266206101972,"perigee_km":482.56718575217,"apogee_km":483.4783477692,"semimajor_km":6861.1597667607,"source":"CELESTRAK","updated_at":"2026-05-25T13:38:21.344458Z"}}}